Location: Lombard
(41.8800°N, 88.0080°W)
Time: 13:54:05
(UTC-06:00)

Transit 4A - Pass Details

Date: 29 November 2023
Orbit: 870 x 973 km, 66.8° (Epoch: 03 March)

Event Time Altitude Azimuth Distance (km) Brightness Sun altitude
Rises 06:26:03 0° 327° (NNW) 3,598 - -6.1°
Exits shadow 06:26:19 - 327° (NNW) 3,493 10.4 -6.1°
Reaches altitude 10° 06:28:37 10° 326° (NW) 2,635 9.8 -5.7°
Maximum altitude 06:34:42 71° 244° (WSW) 959 7.9 -4.7°
Drops below altitude 10° 06:40:34 10° 161° (SSE) 2,549 10.9 -3.7°
Sets 06:43:02 0° 159° (SSE) 3,472 11.7 -3.3°
